Date String (YYYY-MM-DD hh:mm:ss) UTC,Instrument flags,Ambient pressure (hPa),Sample flow (lpm),Bypass flow (lpm),Sample temperature (°C),Ambient temperature (°C),ASC tube jacket temperature (°C),LED temperature (°C),Box temperature (°C),Sample RH (%),Span deviation,Mass concentration (μg/m³),Mass concentration (μg/m³),Mass concentration (μg/m³)
DateTimeUTC,F1_M11,P_M11,Q1_M11,Q2_M11,T1_M11,T2_M11,T3_M11,T4_M11,T5_M11,U1_M11,ZSPAN_M11,X0_M11,X2_M11,X1_M11
2022-08-08 07:00:00,,0832.6,5.00,0.00,32.0,28.6,00.0,39.5,32.5,35.4,0000.0,0007.66,0004.43,0003.93
2022-08-08 07:01:00,,0832.5,5.01,0.00,32.2,27.7,00.0,39.5,32.4,35.3,0000.0,0008.18,0004.49,0004.00
2022-08-08 07:02:00,,0832.5,5.00,0.00,32.5,27.3,00.0,39.5,32.4,34.8,0000.0,0008.16,0004.54,0004.05
2022-08-08 07:03:00,,0832.5,5.00,0.00,32.6,27.3,00.0,39.6,32.3,34.1,0000.0,0008.25,0004.61,0004.08
2022-08-08 07:04:00,,0832.5,5.00,0.00,32.6,27.4,00.0,39.6,32.2,33.6,0000.0,0008.30,0004.65,0004.11
2022-08-08 07:05:00,,0832.5,4.99,0.00,32.5,27.5,00.0,39.7,32.2,34.4,0000.0,0008.49,0004.73,0004.15
2022-08-08 07:06:00,,0832.6,5.00,0.00,32.5,27.7,00.0,39.8,32.2,34.8,0000.0,0008.72,0004.84,0004.21
2022-08-08 07:07:00,,0832.6,5.01,0.00,32.5,27.9,00.0,39.9,32.2,34.7,0000.0,0008.92,0004.91,0004.24
2022-08-08 07:08:00,,0832.6,5.01,0.00,32.5,28.1,00.0,40.0,32.3,35.4,0000.0,0009.08,0004.97,0004.27
2022-08-08 07:09:00,,0832.5,5.00,0.00,32.7,28.2,00.0,40.0,32.5,35.4,0000.0,0009.11,0005.01,0004.30
2022-08-08 07:10:00,,0832.6,4.99,0.00,32.9,28.4,00.0,40.1,32.6,34.7,0000.0,0009.09,0005.01,0004.32
2022-08-08 07:11:00,,0832.6,5.01,0.00,33.1,28.5,00.0,40.2,32.7,34.4,0000.0,0009.27,0005.04,0004.32
2022-08-08 07:12:00,,0832.6,5.00,0.00,33.1,28.6,00.0,40.2,32.6,34.5,0000.0,0009.16,0005.05,0004.31
2022-08-08 07:13:00,,0832.6,5.00,0.00,33.1,28.7,00.0,40.3,32.6,34.4,0000.0,0008.98,0005.10,0004.33
2022-08-08 07:14:00,,0832.6,5.00,0.00,33.1,28.8,00.0,40.4,32.6,34.2,0000.0,0009.09,0005.08,0004.35
2022-08-08 07:15:00,,0832.6,4.99,0.00,33.0,28.9,00.0,40.5,32.6,34.1,0000.0,0009.12,0005.09,0004.37
2022-08-08 07:16:00,,0832.6,4.99,0.00,33.0,28.9,00.0,40.5,32.7,33.8,0000.0,0009.13,0005.11,0004.38
2022-08-08 07:17:00,,0832.6,5.00,0.00,32.9,29.0,00.0,40.6,32.7,34.0,0000.0,0009.23,0005.13,0004.36
2022-08-08 07:18:00,,0832.6,5.00,0.00,32.8,29.1,00.0,40.6,32.7,34.4,0000.0,0009.27,0005.17,0004.40
2022-08-08 07:19:00,,0832.7,5.00,0.00,32.8,29.1,00.0,40.6,32.7,34.7,0000.0,0009.13,0005.16,0004.41
2022-08-08 07:20:00,,0832.6,5.01,0.00,32.7,29.2,00.0,40.7,32.7,35.0,0000.0,0009.19,0005.17,0004.41
2022-08-08 07:21:00,,0832.7,5.00,0.00,32.8,29.2,00.0,40.7,32.9,35.0,0000.0,0009.33,0005.19,0004.43
2022-08-08 07:22:00,,0832.7,4.99,0.00,32.9,29.2,00.0,40.7,33.0,34.6,0000.0,0009.60,0005.22,0004.43
2022-08-08 07:23:00,,0832.7,4.99,0.00,32.9,29.3,00.0,40.7,33.0,34.4,0000.0,0009.88,0005.22,0004.44
2022-08-08 07:24:00,,0832.7,5.01,0.00,32.9,29.3,00.0,40.7,33.0,34.4,0000.0,0010.07,0005.25,0004.43
2022-08-08 07:25:00,,0832.7,4.98,0.00,32.9,29.4,00.0,40.7,33.0,34.4,0000.0,0009.99,0005.29,0004.44
2022-08-08 07:26:00,,0832.7,5.01,0.00,32.9,29.4,00.0,40.8,33.0,34.4,0000.0,0010.45,0005.37,0004.45
2022-08-08 07:27:00,,0832.7,4.98,0.00,32.8,28.9,00.0,40.7,32.8,34.4,0000.0,0010.77,0005.41,0004.48
2022-08-08 07:28:00,,0832.7,4.99,0.00,32.7,28.0,00.0,40.7,32.6,34.4,0000.0,0010.72,0005.42,0004.51
2022-08-08 07:29:00,,0832.7,5.01,0.00,32.6,27.5,00.0,40.6,32.5,34.3,0000.0,0011.09,0005.50,0004.52
2022-08-08 07:30:00,,0832.6,5.01,0.00,32.4,27.4,00.0,40.6,32.3,34.8,0000.0,0011.99,0005.55,0004.52
2022-08-08 07:31:00,,0832.6,5.01,0.00,32.3,27.5,00.0,40.5,32.3,35.0,0000.0,0012.84,0005.62,0004.50
2022-08-08 07:32:00,,0832.6,4.99,0.00,32.3,27.6,00.0,40.5,32.4,34.8,0000.0,0013.63,0005.67,0004.47
2022-08-08 07:33:00,,0832.6,4.99,0.00,32.3,27.8,00.0,40.4,32.4,34.8,0000.0,0014.03,0005.72,0004.46
2022-08-08 07:34:00,,0832.6,5.01,0.00,32.3,28.0,00.0,40.4,32.4,34.8,0000.0,0014.65,0005.82,0004.44
2022-08-08 07:35:00,,0832.5,5.00,0.00,32.2,28.1,00.0,40.4,32.4,34.6,0000.0,0015.54,0005.89,0004.42
2022-08-08 07:36:00,,0832.6,5.01,0.00,32.1,28.3,00.0,40.4,32.4,34.7,0000.0,0016.19,0005.97,0004.41
2022-08-08 07:37:00,,0832.6,4.99,0.00,32.1,28.4,00.0,40.4,32.4,34.9,0000.0,0017.15,0006.09,0004.42
2022-08-08 07:38:00,,0832.6,5.00,0.00,32.0,28.5,00.0,40.4,32.4,34.9,0000.0,0017.62,0006.18,0004.40
2022-08-08 07:39:00,,0832.5,5.00,0.00,32.0,28.6,00.0,40.3,32.4,35.1,0000.0,0018.70,0006.33,0004.39
2022-08-08 07:40:00,,0832.5,5.00,0.00,32.1,28.7,00.0,40.3,32.6,34.9,0000.0,0019.23,0006.36,0004.38
2022-08-08 07:41:00,,0832.6,5.00,0.00,32.2,28.8,00.0,40.3,32.7,34.6,0000.0,0019.93,0006.54,0004.37
2022-08-08 07:42:00,,0832.5,5.02,0.00,32.3,28.9,00.0,40.3,32.7,35.0,0000.0,0020.26,0006.61,0004.39
2022-08-08 07:43:00,,0832.5,5.00,0.00,32.4,28.9,00.0,40.3,32.7,35.0,0000.0,0019.96,0006.70,0004.43
2022-08-08 07:44:00,,0832.6,5.00,0.00,32.6,29.0,00.0,40.3,32.8,34.8,0000.0,0019.92,0006.79,0004.46
2022-08-08 07:45:00,,0832.6,5.00,0.00,32.6,29.1,00.0,40.4,32.8,34.8,0000.0,0019.39,0006.82,0004.50
2022-08-08 07:46:00,,0832.6,5.03,0.00,32.7,29.1,00.0,40.4,32.9,35.1,0000.0,0018.80,0006.83,0004.56
2022-08-08 07:47:00,,0832.7,4.99,0.00,32.9,29.2,00.0,40.5,33.0,34.8,0000.0,0018.70,0006.89,0004.62
2022-08-08 07:48:00,,0832.7,5.00,0.00,32.9,29.2,00.0,40.5,32.9,34.7,0000.0,0017.99,0006.82,0004.66
2022-08-08 07:49:00,,0832.7,4.99,0.00,32.9,29.2,00.0,40.6,32.9,34.8,0000.0,0018.20,0006.83,0004.71
2022-08-08 07:50:00,,0832.7,5.00,0.00,32.9,29.3,00.0,40.6,32.9,34.7,0000.0,0019.03,0006.79,0004.76
2022-08-08 07:51:00,,0832.7,5.01,0.00,32.9,29.3,00.0,40.7,32.9,34.5,0000.0,0018.82,0006.76,0004.80
2022-08-08 07:52:00,,0832.7,5.00,0.00,32.8,29.4,00.0,40.7,32.9,34.5,0000.0,0017.46,0006.63,0004.84
2022-08-08 07:53:00,,0832.7,4.99,0.00,32.8,29.4,00.0,40.7,32.9,34.8,0000.0,0016.69,0006.56,0004.86
2022-08-08 07:54:00,,0832.7,5.00,0.00,32.7,29.3,00.0,40.7,32.9,34.9,0000.0,0016.59,0006.47,0004.87
2022-08-08 07:55:00,,0832.7,5.01,0.00,32.7,28.7,00.0,40.7,32.8,35.0,0000.0,0016.12,0006.39,0004.88
2022-08-08 07:56:00,,0832.7,5.01,0.00,32.7,28.2,00.0,40.7,32.7,34.9,0000.0,0016.61,0006.36,0004.87
2022-08-08 07:57:00,,0832.7,4.99,0.00,32.6,28.0,00.0,40.6,32.6,34.8,0000.0,0017.14,0006.27,0004.85
2022-08-08 07:58:00,,0832.7,5.00,0.00,32.5,28.0,00.0,40.6,32.6,35.1,0000.0,0017.11,0006.18,0004.81
2022-08-08 07:59:00,,0832.7,5.00,0.00,32.6,28.1,00.0,40.6,32.6,34.8,-000.0,0017.59,0006.13,0004.78
